Temp
-3 -3 -3 -3 -3 -3 -3 -3 -2 -2 -2 -2 -2 -2 -3 -3 -3 -4 -4 -4 -4 -4 -4 -4 -5 -5 -6 -6 -6 -6 -6 -6 -5 -5 -6 -6 -7 -7 -7 -7 -7 -7 -7 -8 -9
-3 -3 -3 -3 -3 -3 -3 -3 -3 -2 -2 -2 -2 -2 -2 -3 -3 -3 -4 -5 -5 -4 -5 -4 -5 -5 -6 -6 -6 -7 -6 -6 -6 -5 -6 -6 -7 -6 -7 -7 -6 -7 -7 -8 -8
-3 -3 -3 -4 -4 -4 -4 -4 -3 -3 -3 -2 -2 -2 -2 -3 -3 -4 -4 -4 -5 -5 -5 -5 -5 -5 -5 -6 -6 -6 -7 -6 -6 -6 -6 -6 -6 -7 -7 -7 -7 -6 -7 -8 -8
-3 -3 -3 -4 -4 -4 -4 -4 -3 -3 -3 -3 -3 -2 -3 -3 -4 -4 -4 -5 -5 -5 -6 -5 -5 -5 -5 -5 -6 -6 -7 -6 -6 -6 -6 -5 -6 -7 -6 -7 -7 -6 -7 -7 -8
-3 -3 -3 -4 -4 -4 -4 -4 -4 -3 -3 -3 -3 -3 -3 -3 -4 -4 -5 -5 -5 -6 -6 -6 -5 -5 -5 -5 -6 -6 -6 -6 -6 -6 -6 -5 -6 -6 -7 -7 -7 -7 -7 -7 -7
-3 -3 -3 -4 -4 -4 -4 -4 -4 -4 -3 -3 -3 -3 -3 -4 -5 -5 -5 -6 -6 -6 -6 -6 -6 -5 -5 -5 -6 -7 -6 -6 -7 -6 -6 -5 -6 -6 -7 -6 -7 -6 -6 -7 -7
-3 -3 -3 -3 -4 -4 -4 -4 -4 -4 -4 -3 -4 -4 -4 -5 -5 -5 -6 -7 -7 -7 -7 -7 -7 -6 -6 -6 -7 -7 -6 -7 -7 -6 -6 -5 -5 -6 -6 -6 -6 -6 -7 -7 -7
-3 -3 -3 -4 -4 -5 -5 -5 -4 -4 -4 -4 -5 -5 -5 -6 -6 -7 -7 -7 -8 -8 -8 -8 -8 -6 -6 -6 -8 -8 -7 -7 -7 -6 -6 -6 -5 -5 -6 -6 -6 -7 -7 -7 -7
-4 -4 -4 -4 -5 -5 -5 -5 -4 -5 -5 -5 -5 -6 -6 -7 -7 -7 -7 -7 -8 -9 -9 -9 -9 -8 -6 -7 -8 -8 -8 -8 -7 -6 -6 -6 -6 -6 -6 -6 -6 -7 -6 -7 -6
-4 -4 -4 -5 -5 -5 -5 -5 -5 -5 -6 -6 -6 -6 -6 -7 -7 -7 -8 -8 -8 -9 -9 -9 -9 -9 -8 -8 -9 -9 -8 -8 -7 -6 -6 -6 -5 -6 -6 -6 -7 -7 -6 -6 -6
-4 -4 -4 -5 -6 -6 -6 -6 -5 -5 -6 -6 -6 -6 -6 -6 -7 -7 -8 -8 -9 -9 -9 -10 -9 -9 -8 -9 -9 -9 -9 -8 -8 -6 -6 -6 -6 -6 -6 -6 -6 -6 -7 -6 -6
-5 -5 -5 -6 -6 -6 -6 -6 -7 -6 -6 -7 -7 -7 -7 -7 -8 -8 -8 -9 -9 -9 -10 -10 -10 -10 -9 -10 -10 -10 -9 -9 -8 -8 -6 -6 -6 -6 -6 -6 -6 -7 -7 -6 -6
-5 -5 -6 -7 -7 -7 -7 -7 -7 -7 -8 -8 -8 -8 -8 -8 -8 -9 -9 -10 -10 -10 -11 -11 -11 -11 -11 -11 -11 -10 -10 -9 -8 -8 -7 -7 -6 -6 -6 -6 -6 -7 -6 -7 -6
-6 -6 -6 -7 -7 -7 -8 -8 -8 -8 -8 -8 -8 -8 -9 -9 -9 -9 -10 -10 -10 -11 -11 -11 -11 -11 -12 -12 -11 -10 -10 -10 -9 -8 -7 -7 -7 -6 -6 -6 -5 -6 -6 -7 -6
-6 -6 -7 -7 -7 -8 -9 -9 -9 -9 -9 -9 -9 -9 -10 -10 -10 -10 -11 -12 -12 -11 -11 -11 -11 -11 -11 -11 -11 -11 -10 -10 -8 -8 -7 -7 -7 -6 -6 -6 -6 -5 -6 -7 -7
-6 -6 -7 -7 -7 -8 -9 -9 -9 -9 -10 -10 -10 -10 -11 -11 -11 -11 -11 -12 -12 -12 -12 -11 -11 -11 -12 -11 -11 -11 -10 -10 -10 -9 -9 -8 -7 -7 -6 -6 -6 -6 -7 -6 -7
-7 -7 -7 -8 -8 -8 -9 -10 -10 -10 -10 -10 -11 -11 -12 -12 -12 -12 -12 -12 -12 -12 -12 -12 -11 -12 -12 -11 -10 -10 -10 -10 -10 -10 -8 -8 -8 -7 -7 -5 -5 -6 -6 -7 -7
-7 -7 -8 -8 -8 -9 -9 -10 -10 -10 -11 -10 -11 -12 -13 -13 -12 -12 -12 -12 -12 -12 -12 -12 -12 -12 -12 -12 -12 -11 -11 -11 -11 -11 -9 -9 -8 -8 -7 -6 -6 -6 -7 -8 -6
-7 -8 -8 -8 -8 -9 -10 -10 -10 -11 -11 -11 -10 -11 -12 -13 -13 -13 -12 -12 -12 -12 -12 -12 -13 -13 -12 -12 -12 -12 -11 -11 -11 -9 -9 -10 -8 -8 -7 -7 -5 -6 -6 -6 -6
-8 -8 -8 -8 -9 -10 -10 -11 -11 -11 -11 -11 -11 -11 -11 -12 -12 -14 -14 -13 -13 -12 -12 -12 -13 -13 -13 -12 -12 -12 -12 -11 -12 -10 -10 -10 -9 -8 -7 -7 -7 -7 -7 -7 -7
-8 -8 -9 -9 -9 -10 -10 -10 -11 -11 -12 -12 -11 -11 -12 -12 -12 -13 -13 -14 -13 -13 -13 -12 -13 -13 -13 -13 -12 -12 -11 -11 -11 -10 -11 -11 -10 -10 -10 -8 -8 -8 -7 -8 -8
-9 -9 -9 -9 -9 -10 -10 -10 -10 -11 -11 -12 -12 -12 -12 -12 -13 -13 -13 -13 -13 -13 -13 -13 -13 -13 -13 -13 -13 -12 -12 -12 -11 -11 -10 -10 -10 -11 -10 -10 -9 -8 -8 -8 -8
-9 -9 -9 -10 -10 -10 -10 -11 -11 -12 -12 -12 -12 -12 -12 -12 -12 -13 -13 -13 -13 -13 -13 -13 -13 -13 -13 -13 -13 -13 -12 -12 -11 -11 -10 -10 -9 -10 -10 -10 -10 -10 -9 -8 -8
-9 -9 -10 -10 -10 -10 -10 -11 -12 -12 -12 -13 -12 -12 -12 -12 -12 -13 -13 -13 -13 -13 -13 -13 -13 -13 -13 -13 -13 -13 -12 -12 -11 -11 -10 -11 -10 -11 -9 -9 -10 -10 -10 -9 -8
-10 -10 -10 -10 -10 -11 -11 -11 -12 -12 -12 -13 -13 -12 -12 -13 -13 -13 -13 -13 -13 -13 -13 -14 -13 -13 -13 -13 -13 -13 -12 -12 -12 -11 -10 -10 -10 -10 -10 -9 -9 -10 -9 -10 -9
-10 -10 -10 -11 -10 -11 -11 -12 -12 -12 -13 -13 -13 -13 -13 -13 -13 -13 -13 -13 -13 -13 -14 -14 -13 -13 -13 -13 -13 -13 -13 -12 -13 -11 -11 -10 -10 -10 -10 -10 -9 -9 -9 -9 -9
-11 -11 -11 -11 -11 -11 -12 -12 -13 -13 -13 -13 -13 -14 -13 -13 -13 -14 -13 -13 -13 -14 -14 -14 -14 -14 -13 -13 -13 -13 -12 -12 -12 -12 -11 -11 -10 -10 -11 -11 -9 -9 -8 -9 -9
Height
5881 5879 5878 5876 5875 5874 5872 5871 5870 5869 5868 5866 5865 5865 5865 5865 5865 5864 5865 5867 5867 5870 5870 5871 5873 5874 5876 5878 5880 5879 5880 5879 5877 5875 5879 5880 5882 5882 5883 5886 5887 5889 5889 5886 5889
5878 5877 5876 5874 5873 5872 5871 5869 5868 5867 5866 5865 5864 5864 5863 5863 5862 5862 5864 5863 5864 5867 5870 5870 5871 5873 5874 5877 5879 5880 5880 5880 5881 5880 5879 5880 5884 5883 5885 5887 5888 5889 5890 5888 5890
5875 5874 5873 5872 5870 5869 5868 5867 5866 5864 5863 5863 5862 5861 5860 5860 5860 5861 5861 5861 5861 5864 5867 5869 5868 5870 5872 5875 5877 5879 5880 5880 5881 5881 5882 5882 5883 5884 5886 5887 5889 5891 5891 5889 5891
5873 5872 5870 5869 5867 5866 5865 5864 5863 5861 5860 5859 5858 5858 5857 5857 5858 5857 5858 5859 5859 5861 5864 5866 5866 5867 5870 5872 5875 5878 5880 5882 5881 5882 5882 5880 5882 5884 5887 5887 5890 5891 5892 5891 5892
5871 5870 5868 5866 5864 5863 5862 5861 5860 5859 5857 5855 5854 5852 5852 5852 5852 5853 5854 5855 5856 5857 5860 5862 5863 5864 5867 5870 5873 5877 5880 5881 5882 5882 5880 5877 5883 5884 5887 5888 5891 5893 5894 5892 5893
5870 5868 5866 5864 5862 5860 5859 5858 5856 5855 5853 5851 5849 5848 5847 5847 5846 5847 5848 5849 5850 5852 5854 5857 5857 5861 5864 5869 5871 5876 5878 5881 5881 5882 5881 5879 5883 5885 5888 5890 5892 5894 5895 5896 5897
5869 5866 5864 5861 5859 5857 5855 5854 5852 5850 5849 5847 5845 5842 5841 5841 5840 5842 5842 5843 5844 5846 5849 5851 5853 5857 5862 5867 5869 5874 5876 5880 5881 5881 5881 5880 5879 5887 5888 5890 5892 5894 5895 5896 5898
5867 5865 5862 5858 5856 5854 5852 5850 5848 5846 5844 5841 5840 5838 5836 5835 5835 5837 5838 5838 5840 5842 5844 5846 5850 5854 5859 5865 5869 5872 5875 5878 5880 5880 5881 5884 5885 5884 5888 5890 5892 5894 5895 5897 5898
5865 5862 5858 5855 5853 5850 5848 5845 5843 5841 5839 5837 5835 5832 5832 5831 5831 5832 5834 5834 5835 5838 5840 5843 5846 5851 5860 5864 5867 5869 5872 5875 5878 5878 5879 5881 5884 5881 5886 5889 5891 5894 5895 5899 5899
5862 5859 5855 5852 5850 5847 5844 5841 5839 5837 5835 5832 5830 5830 5828 5826 5826 5828 5829 5830 5832 5834 5836 5841 5844 5852 5859 5863 5863 5865 5867 5871 5875 5876 5877 5879 5879 5879 5883 5888 5891 5894 5896 5898 5899
5859 5855 5852 5849 5846 5843 5841 5838 5836 5834 5831 5829 5828 5825 5824 5823 5822 5824 5824 5826 5828 5831 5834 5838 5844 5854 5856 5858 5858 5861 5864 5866 5869 5872 5876 5875 5878 5879 5883 5886 5890 5894 5895 5897 5899
5856 5852 5849 5846 5843 5840 5837 5835 5832 5830 5827 5826 5824 5821 5820 5819 5819 5820 5821 5824 5826 5828 5833 5838 5843 5847 5851 5854 5856 5859 5863 5864 5866 5868 5872 5872 5876 5878 5881 5884 5888 5891 5894 5897 5900
5853 5850 5846 5844 5840 5837 5835 5833 5829 5827 5825 5823 5820 5818 5818 5817 5816 5817 5819 5821 5823 5826 5831 5836 5840 5842 5844 5850 5854 5858 5859 5860 5863 5867 5868 5868 5873 5875 5877 5880 5885 5892 5893 5896 5897
5850 5847 5844 5841 5839 5835 5833 5831 5828 5826 5825 5823 5818 5816 5816 5815 5815 5816 5817 5820 5821 5825 5828 5832 5835 5838 5842 5847 5852 5855 5857 5859 5860 5862 5866 5868 5870 5871 5874 5877 5882 5888 5893 5894 5895
5847 5844 5841 5837 5835 5833 5832 5829 5827 5826 5826 5822 5819 5817 5815 5816 5816 5815 5816 5818 5821 5824 5828 5831 5833 5834 5839 5847 5849 5853 5854 5857 5858 5857 5862 5863 5865 5867 5870 5872 5876 5885 5888 5892 5893
5844 5841 5838 5835 5832 5831 5829 5827 5826 5826 5824 5823 5820 5817 5816 5815 5815 5815 5816 5818 5820 5823 5826 5828 5831 5834 5838 5842 5846 5849 5852 5855 5855 5854 5860 5860 5862 5864 5866 5867 5873 5880 5884 5889 5891
5840 5837 5834 5832 5830 5828 5826 5825 5825 5825 5825 5824 5820 5817 5816 5815 5815 5815 5816 5817 5819 5821 5823 5825 5828 5832 5836 5840 5844 5848 5850 5853 5855 5852 5856 5857 5859 5860 5862 5863 5865 5875 5881 5885 5887
5837 5834 5831 5829 5826 5826 5824 5823 5822 5822 5822 5823 5820 5818 5817 5816 5817 5816 5816 5817 5820 5821 5822 5825 5829 5832 5835 5838 5841 5844 5847 5849 5851 5852 5853 5854 5855 5856 5856 5857 5859 5866 5874 5878 5882
5833 5831 5829 5827 5824 5823 5823 5821 5820 5820 5820 5821 5820 5819 5818 5817 5817 5816 5816 5817 5818 5819 5822 5824 5828 5830 5833 5836 5839 5842 5845 5846 5846 5846 5849 5852 5853 5853 5855 5857 5856 5863 5871 5877 5881
5830 5828 5826 5824 5822 5821 5820 5819 5818 5816 5817 5818 5818 5818 5817 5816 5816 5816 5816 5816 5818 5818 5819 5822 5826 5828 5830 5833 5835 5838 5841 5843 5844 5844 5847 5852 5851 5851 5854 5855 5855 5861 5868 5875 5878
5826 5824 5822 5820 5819 5818 5817 5815 5816 5816 5815 5816 5816 5816 5816 5815 5814 5813 5814 5815 5815 5817 5818 5819 5823 5826 5827 5829 5832 5835 5837 5840 5843 5845 5849 5853 5853 5850 5852 5854 5855 5858 5864 5870 5874
5822 5820 5819 5817 5816 5814 5813 5812 5813 5812 5813 5813 5814 5813 5814 5813 5812 5811 5811 5812 5812 5812 5815 5817 5819 5822 5824 5826 5828 5830 5834 5837 5840 5845 5847 5849 5854 5850 5855 5857 5856 5857 5859 5866 5871
5816 5816 5815 5813 5811 5810 5810 5809 5809 5809 5809 5808 5809 5809 5810 5811 5811 5810 5809 5809 5808 5809 5809 5812 5815 5818 5821 5821 5824 5826 5829 5832 5838 5840 5842 5845 5851 5851 5856 5859 5858 5858 5858 5859 5864
5809 5810 5810 5807 5807 5806 5806 5805 5805 5805 5806 5804 5804 5804 5806 5806 5807 5807 5806 5805 5804 5803 5804 5807 5809 5813 5816 5817 5820 5822 5825 5827 5832 5835 5838 5841 5845 5848 5853 5857 5858 5858 5856 5857 5858
5800 5802 5803 5802 5801 5802 5801 5801 5801 5802 5802 5801 5799 5799 5801 5802 5802 5802 5802 5801 5799 5798 5799 5801 5803 5806 5810 5812 5814 5817 5820 5822 5826 5829 5833 5836 5841 5845 5849 5853 5855 5857 5859 5858 5858
5792 5793 5794 5795 5795 5796 5796 5796 5796 5797 5798 5797 5796 5797 5797 5798 5798 5798 5798 5796 5793 5793 5792 5794 5796 5798 5801 5804 5808 5810 5813 5816 5820 5824 5828 5831 5835 5840 5845 5848 5851 5855 5857 5857 5858
5784 5785 5785 5787 5787 5789 5791 5792 5791 5792 5794 5792 5792 5792 5793 5793 5793 5792 5792 5790 5788 5786 5786 5787 5788 5790 5794 5796 5799 5803 5807 5812 5815 5820 5823 5824 5829 5834 5839 5843 5846 5849 5853 5854 5857
Wind_Speed
13 13 13 13 11 12 11 11 9 7 8 9 9 10 10 10 12 15 15 14 14 9 9 11 10 10 10 12 9 7 7 8 11 5 16 7 11 9 10 7 13 9 8 16 10
16 16 15 15 14 14 13 12 11 9 8 8 10 10 11 14 16 17 15 18 17 14 10 11 11 10 12 15 13 11 7 6 7 3 18 10 9 5 12 8 12 11 10 12 11
16 16 17 17 16 15 12 11 12 12 12 11 13 15 17 18 19 18 18 20 20 17 14 12 14 13 14 14 15 12 8 5 6 9 12 5 8 10 15 11 9 9 11 11 11
14 14 15 15 14 11 11 12 13 12 13 14 16 17 20 22 21 20 21 22 22 21 17 15 17 16 15 16 16 13 8 1 6 2 5 13 7 12 10 11 8 7 8 11 11
12 13 13 12 13 12 13 14 14 14 17 18 20 22 23 24 24 24 24 23 24 25 22 19 21 21 19 17 17 15 12 8 5 7 6 15 4 18 12 11 9 7 5 10 10
13 14 14 15 14 14 15 14 16 19 21 21 22 22 22 23 22 23 25 26 28 27 26 25 26 24 21 18 19 14 13 10 9 10 5 12 4 6 8 6 7 6 5 9 10
15 16 17 17 15 15 16 17 19 21 21 22 20 20 21 20 21 23 25 26 29 30 30 29 30 28 22 19 20 17 17 12 12 9 3 4 13 10 3 7 5 8 7 10 9
17 18 19 19 19 18 19 20 21 21 22 20 19 19 19 17 17 15 19 25 27 31 32 32 32 31 25 19 19 20 17 14 14 15 7 7 12 13 14 7 13 8 7 10 6
20 20 20 20 19 20 20 21 21 22 20 19 18 18 15 15 15 15 15 21 25 29 33 33 32 31 23 19 19 21 19 14 18 13 9 12 13 21 18 13 13 9 9 9 7
22 23 22 22 20 21 22 22 22 20 19 18 16 15 13 13 13 14 17 21 24 26 31 32 33 26 20 19 22 25 23 22 20 16 13 12 13 10 21 16 12 12 11 12 8
24 24 24 23 21 21 23 23 21 21 17 15 12 13 14 13 15 15 19 21 24 25 26 30 30 20 21 22 26 27 27 25 25 15 13 14 12 9 16 13 12 13 13 12 11
23 23 25 23 20 22 22 19 19 21 21 14 13 9 10 9 11 11 14 18 20 23 22 24 24 24 25 25 27 28 25 25 27 27 17 19 17 12 13 17 15 11 17 14 11
23 23 23 21 21 21 20 18 18 20 18 19 13 10 7 7 6 6 11 15 18 18 18 20 24 27 29 27 26 27 25 25 25 24 19 18 20 15 16 23 21 19 19 15 14
23 23 22 20 20 19 17 15 14 14 15 17 15 12 7 3 4 8 9 11 16 17 20 22 27 30 30 26 25 26 24 22 24 31 13 12 17 19 26 29 25 22 20 16 16
23 22 20 18 19 16 13 13 12 13 14 10 10 10 6 3 4 8 11 11 13 15 19 23 27 32 31 24 27 26 27 24 26 30 18 16 15 23 17 27 28 21 23 22 19
23 21 18 17 18 15 12 11 12 11 10 7 6 6 5 3 5 7 9 11 13 14 16 24 27 31 30 28 27 29 29 27 22 30 25 14 18 16 23 18 32 26 23 24 21
22 19 17 17 16 13 11 11 10 11 9 7 6 6 7 7 4 7 11 13 15 17 17 24 27 29 31 28 26 27 22 25 27 23 22 16 19 20 15 17 29 31 27 23 24
19 19 18 18 16 12 10 10 11 10 10 6 4 4 3 8 6 6 13 12 13 17 18 23 24 25 28 30 28 24 23 23 22 21 23 7 11 14 11 12 28 35 33 27 29
18 18 17 17 15 11 10 10 11 9 11 11 7 4 4 3 5 4 6 12 15 18 21 24 25 25 26 28 28 25 22 23 23 30 15 17 8 14 8 4 21 32 33 29 27
19 17 16 14 15 12 10 10 9 14 13 12 10 6 5 4 3 4 7 6 14 18 21 23 28 28 27 27 29 28 24 21 17 29 29 19 9 14 17 9 18 27 26 26 25
17 18 17 13 14 13 11 15 12 12 14 13 11 9 8 5 5 7 5 7 8 16 21 24 32 29 26 26 28 28 29 30 25 28 21 22 17 18 21 12 4 15 20 19 21
19 17 15 14 15 14 15 17 13 13 14 16 15 11 9 5 4 7 10 8 13 13 17 24 29 35 30 31 29 30 29 27 27 26 24 21 19 27 14 7 13 4 18 15 14
21 20 16 17 15 13 12 13 13 16 16 17 17 14 12 10 8 8 9 10 12 16 22 21 28 34 37 37 37 35 32 32 26 24 24 22 18 19 12 2 7 8 12 18 14
26 23 19 19 19 15 13 13 13 17 16 15 16 18 16 14 12 12 11 13 15 15 18 23 23 30 38 34 35 35 31 30 27 26 26 24 21 16 7 7 9 5 10 6 14
30 26 23 20 19 16 17 14 14 15 15 17 17 19 18 15 17 16 13 17 16 17 17 23 23 23 32 37 37 36 32 30 28 27 25 26 25 20 14 11 10 10 10 8 5
32 29 27 27 22 19 17 15 17 16 13 15 17 18 21 18 17 16 17 19 19 14 18 24 29 26 26 37 37 38 37 32 32 29 25 25 24 23 18 18 16 12 15 11 12
31 31 31 30 27 22 19 17 18 19 15 17 18 17 16 18 19 17 19 22 18 18 19 21 25 27 29 30 36 41 41 36 33 31 27 25 24 22 24 22 20 18 17 17 7
Wind_Direction
305 306 307 310 309 311 316 320 332 314 304 290 290 296 292 274 257 251 253 257 256 244 242 252 247 241 213 195 198 274 272 7 67 117 152 198 144 111 105 107 94 94 87 97 112
302 304 302 302 304 304 302 299 305 306 288 272 273 276 280 276 269 258 250 254 254 250 244 253 254 243 219 210 199 229 277 339 15 143 176 121 153 150 131 124 101 103 109 94 94
302 298 298 298 300 299 301 303 299 293 284 270 264 268 265 268 270 264 256 253 256 253 248 246 248 238 231 218 209 216 258 325 52 125 154 191 138 130 136 104 103 100 115 106 96
312 308 304 302 303 301 298 296 297 291 288 279 275 274 269 263 265 263 258 256 256 254 247 241 246 243 227 222 213 207 218 259 338 122 206 195 154 166 139 116 116 101 105 97 85
326 318 317 316 309 298 295 293 290 289 291 287 281 274 272 269 267 261 257 252 252 251 246 242 242 241 231 223 218 199 207 232 251 286 278 194 191 151 160 123 137 116 115 113 94
331 326 324 318 309 301 300 299 296 294 286 283 283 278 273 267 262 256 251 244 242 244 244 237 239 239 238 219 218 203 214 228 262 258 268 234 183 191 120 154 143 139 140 121 99
329 328 325 318 314 311 306 302 299 295 291 290 286 282 278 274 263 256 249 243 237 236 237 235 236 235 232 220 214 205 209 221 250 259 262 150 195 166 241 218 174 161 157 122 119
336 330 324 320 317 313 308 305 301 297 295 292 292 292 291 283 276 263 248 248 239 235 231 234 237 236 234 219 212 208 209 225 246 238 222 202 223 237 241 164 157 164 192 154 148
331 327 324 319 314 312 309 305 300 300 296 294 298 297 296 280 273 262 251 241 240 236 234 232 236 237 230 219 210 211 205 224 236 223 211 217 217 232 235 204 156 166 190 179 177
335 331 329 324 313 310 307 305 303 305 299 300 303 300 295 280 270 260 249 239 240 238 235 234 238 240 233 213 213 214 209 209 210 214 209 216 228 227 209 201 191 182 182 188 169
335 332 329 322 316 312 310 310 309 310 312 315 318 312 297 276 269 260 244 238 238 239 236 233 236 239 230 216 219 216 215 218 222 205 211 217 197 202 192 208 159 170 184 197 179
331 329 326 324 322 316 315 316 318 319 317 330 333 318 301 287 266 247 234 235 237 237 235 232 228 225 227 215 221 220 219 224 227 232 219 218 219 207 226 191 178 187 186 197 183
326 327 328 326 320 319 321 321 326 329 323 327 345 344 315 282 259 241 233 219 224 226 222 222 220 221 222 216 219 225 224 227 232 231 229 210 215 217 227 223 206 177 179 191 198
322 326 326 323 317 321 324 323 325 331 322 327 341 339 324 298 246 223 219 229 215 208 207 209 213 220 223 219 219 227 235 237 246 221 200 207 206 205 201 230 215 204 209 210 201
320 323 324 319 315 320 324 318 327 330 334 341 342 335 325 260 214 209 198 203 211 214 210 211 213 218 222 220 219 223 226 240 240 244 206 211 222 211 216 223 222 208 218 192 205
316 319 322 315 314 320 320 319 333 339 335 345 341 336 338 292 233 214 198 199 202 198 209 215 212 219 220 219 222 223 238 239 256 246 247 224 226 225 220 231 219 195 195 187 199
312 316 315 310 312 317 318 317 319 338 332 353 9 356 355 336 258 227 208 202 197 188 202 214 212 214 221 218 229 230 247 247 264 272 236 255 252 246 221 247 221 203 207 202 199
308 314 311 308 309 316 312 309 309 332 322 343 353 35 355 310 335 270 236 215 212 201 202 210 212 217 220 228 234 238 242 253 263 274 233 208 239 236 231 257 210 203 195 203 202
308 312 309 307 305 306 301 295 301 302 311 319 319 2 44 278 312 311 272 221 208 207 203 205 205 206 211 228 236 236 237 255 269 273 227 305 272 230 188 210 203 201 210 208 209
305 308 305 302 298 299 292 283 278 285 294 299 311 322 339 336 289 255 280 269 224 211 206 203 203 211 215 216 234 238 232 240 263 260 258 282 42 189 199 218 159 193 206 205 214
294 301 303 304 297 289 280 272 268 268 278 283 289 297 312 317 305 300 287 243 246 234 215 204 204 207 215 222 227 238 242 243 251 259 276 282 278 59 45 36 232 167 182 194 200
285 295 297 298 290 292 282 295 289 282 269 268 273 277 292 306 306 281 279 276 232 239 229 217 210 206 213 222 231 237 241 246 251 253 259 264 281 288 315 355 349 319 196 184 209
277 279 290 290 282 285 284 295 292 291 286 268 261 261 265 269 279 290 293 287 269 261 236 230 223 213 215 226 231 240 245 250 248 244 241 247 255 264 301 295 297 326 299 199 225
272 272 274 281 279 272 272 276 290 295 278 271 269 264 261 268 274 280 297 302 295 284 242 236 233 223 219 225 231 239 245 246 246 242 240 242 245 248 250 223 244 307 359 251 219
266 267 265 268 275 271 271 274 282 290 269 259 263 268 268 270 277 288 299 305 296 279 253 232 232 232 226 226 231 234 237 239 242 245 246 247 248 251 247 236 229 249 282 306 206
257 263 263 261 262 265 267 272 269 282 267 269 270 270 272 271 272 282 299 304 299 283 259 241 235 236 231 225 228 230 233 233 235 243 248 248 251 246 239 244 244 224 256 280 220
255 254 257 259 258 260 262 263 262 267 272 264 275 288 286 281 281 288 305 302 293 286 267 253 244 235 233 235 231 233 234 233 235 242 245 248 249 239 233 230 244 246 231 263 270